TIME,DELAY(SENSOR),PRES,T(CTD),SAL,OXYGEN,RAWTEMP,T(OPTODE),TCPHASE,FLUOR,BETA(BETA700),BETA(BETA412),BETA(BETA440),CDOM,C(CSC),ED(ED411.90),ED(ED443.80),ED(ED489.40),ED(ED554.70),LU(LU412.20),LU(LU443.80),LU(LU489.40),LU(LU555.00),COMP,TILTX,TILTX(TILTY),CHECK
1350400939,5804,496.8699951171875000,17.2122001647949220,36.4090995788574200,226.7111968994140600,195.7341003417968800,17.2114391326904300,32.2685813903808600,50,95,55,80,54,711,2147487981,2147770331,2147558464,2147799350,2147314761,2147476827,2147710628,2148247908,3579,6,13,48194
1350401063,5808,486.0599975585937500,17.3416004180908200,36.4328994750976560,227.9602050781250000,191.5164031982422000,17.3397502899169920,32.1475791931152340,50,96,56,80,54,712,2147488356,2147766372,2147558747,2147796781,2147314029,2147474953,2147712877,2148244461,120,7,12,46509
1350401184,5805,475.4500122070312500,17.4416999816894530,36.4524002075195300,229.5424041748047000,188.0928039550781200,17.4439105987548830,32.0216102600097660,49,95,55,81,54,711,2147484041,2147765321,2147560438,2147795977,2147319469,2147474889,2147709056,2148241984,360,7,13,21406
1350401319,5804,463.8200073242187500,17.5331001281738280,36.4709014892578100,230.9087982177734400,185.1268005371093800,17.5341701507568360,31.9135704040527340,50,95,56,80,53,712,2147487469,2147770112,2147556370,2147794514,2147316187,2147475803,2147707666,2148243629,2946,7,13,58116
1350401440,5803,453.3299865722656000,17.6191997528076170,36.4869995117187500,232.5794982910156200,182.4494018554687500,17.6156501770019530,31.7950992584228500,50,96,56,80,54,714,2147489024,2147766930,2147557558,2147793572,2147309193,2147477257,2147707748,2148241828,2595,7,13,5578
1350401561,5805,442.7999877929687500,17.6954994201660160,36.5017013549804700,233.6257934570312500,179.9611053466797000,17.6913795471191400,31.7103004455566400,50,95,57,81,53,717,2147486025,2147763337,2147557074,2147796123,2147312292,2147479771,2147705773,2148241206,1883,7,13,43691
1350401696,5804,431.0899963378906000,17.7465000152587900,36.5129013061523440,235.0747070312500000,178.0447998046875000,17.7497100830078120,31.6139602661132800,49,94,55,81,54,720,2147488118,2147767012,2147555858,2147792173,2147315108,2147474697,2147705097,2148244068,1706,6,13,8656
1350401817,5802,420.5499877929687500,17.8045997619628900,36.5224990844726560,236.1013031005859400,176.3442993164062500,17.8014698028564450,31.5417098999023440,50,95,55,80,53,722,2147490285,2147765595,2147555538,2147794313,2147315126,2147479424,2147704941,2148243419,947,7,13,53147
1350401941,5804,409.5899963378906000,17.8623008728027340,36.5323982238769500,237.0106964111328000,174.3919067382812500,17.8609104156494140,31.4719505310058600,49,95,55,80,53,716,2147485275,2147764964,2147556187,2147792292,2147314523,2147477202,2147707949,2148243227,826,7,13,54249
1350402073,5804,397.9200134277344000,17.9281997680664060,36.5414009094238300,236.6289062500000000,172.1889038085937500,17.9279804229736330,31.4605102539062500,50,95,56,80,53,722,2147490276,2147762514,2147558043,2147794422,2147314514,2147476909,2147704768,2148241545,24,7,13,10752
1350402194,5804,387.3599853515625000,17.9556999206542970,36.5442008972168000,235.7516021728515600,171.3852996826172000,17.9524497985839840,31.4915103912353500,50,97,56,80,54,720,2147491081,2147769307,2147558162,2147794578,2147302537,2147475840,2147708224,2148241261,208,7,13,44874
1350402317,5806,376.6400146484375000,17.9972991943359380,36.5522003173828100,236.0484924316406200,170.0066986083984400,17.9944190979003900,31.4588203430175780,50,95,56,80,53,727,2147490898,2147763995,2147557988,2147791552,2147301668,2147473600,2147706450,2148239780,2969,7,13,32500
1350402449,5805,365.6400146484375000,18.0433006286621100,36.5587997436523440,236.0146026611328000,168.5285034179687500,18.0394401550292970,31.4407596588134770,49,96,56,81,53,728,2147493449,2147766738,2147562294,2147793042,2147316617,2147476644,2147710070,2148241728,2774,6,12,5649
1350402584,5801,354.7399902343750000,18.0914993286132800,36.5642013549804700,235.8851013183593800,166.9297943115234400,18.0881309509277340,31.4253101348876950,49,96,56,79,55,730,2147493330,2147767405,2147558866,2147794002,2147317046,2147479186,2147703067,2148242139,1758,7,12,49298
1350402727,5803,343.2399902343750000,18.1602001190185550,36.5731010437011700,235.0666046142578000,164.6432037353515600,18.1577701568603500,31.4337806701660160,49,96,55,81,53,732,2147491520,2147762349,2147562642,2147791241,2147318665,2147476717,2147708470,2148240621,1349,7,13,334
1350402862,5805,332.2600097656250000,18.1940002441406250,36.5764007568359400,234.6943054199218800,163.5522003173828000,18.1910095214843750,31.4371109008789060,49,96,56,80,53,734,2147489664,2147764416,2147562569,2147790592,2147308489,2147478299,2147707638,2148241526,1572,7,13,40560
1350402994,5805,321.7200012207031000,18.2546005249023440,36.5831985473632800,234.1820983886718800,161.5843963623047000,18.2509498596191400,31.4351501464843750,49,96,55,81,52,737,2147487222,2147763803,2147562185,2147791744,2147307346,2147480301,2147704329,2148244022,1081,7,13,12096
1350403137,5803,310.1600036621094000,18.3085994720459000,36.5881996154785160,233.2868041992187500,159.6614074707031200,18.3095397949218750,31.4526195526123050,50,97,55,80,53,742,2147490752,2147766336,2147566006,2147791899,2147312192,2147482011,2147717412,2148241289,940,7,12,22433
1350403271,5804,299.5700073242187500,18.3656005859375000,36.5938987731933600,232.7142944335937500,157.9389038085937500,18.3620204925537100,31.4573192596435550,50,96,56,82,54,742,2147490038,2147766957,2147573741,2147791753,2147312850,2147481609,2147713371,2148237659,442,7,12,13025
1350403414,5804,288.7300109863281000,18.4326000213623050,36.5980987548828100,231.2413024902343800,155.6367034912109400,18.4321708679199220,31.4982604980468750,50,97,54,81,53,746,2147493339,2147767616,2147573833,2147788425,2147308150,2147480054,2147714349,2148238930,272,7,13,42398
1350403559,5805,276.7399902343750000,18.5186996459960940,36.5984992980957000,228.9819946289062500,152.7906036376953000,18.5189208984375000,31.5709896087646500,50,96,54,80,54,747,2147493037,2147773074,2147586249,2147790500,2147307145,2147483172,2147722285,2148241206,693,7,12,62959
1350403669,5806,266.2500000000000000,18.6072998046875000,36.6015014648437500,227.2126007080078000,150.0305023193359400,18.6030597686767580,31.6218605041503900,50,97,57,80,54,748,2147491108,2147773485,2147591570,2147790464,2147314605,2147481243,2147730834,2148240128,741,7,13,49420
1350403790,5805,255.0399932861328000,18.7399997711181640,36.6110992431640600,227.1790924072265600,145.4765014648437500,18.7419204711914060,31.5622692108154300,50,96,56,81,55,750,2147493467,2147778779,2147600374,2147791698,2147305234,2147488795,2147731446,2148240484,989,7,13,32288
1350403913,5802,244.0599975585937500,18.8836002349853500,36.6130981445312500,227.7160034179687500,140.9217071533203000,18.8808403015136720,31.4747390747070300,50,97,53,81,54,749,2147494610,2147780434,2147621165,2147792201,2147306669,2147492123,2147740205,2148239040,936,6,12,60860
1350404034,5805,233.8899993896484400,19.0366001129150400,36.6109008789062500,229.1649932861328000,135.9299011230468800,19.0331497192382800,31.3366298675537100,50,95,54,80,54,750,2147493595,2147781257,2147610898,2147788041,2147311625,2147490733,2147739181,2148237211,531,7,12,48126
1350404180,5805,222.2799987792968800,19.1557006835937500,36.5922012329101560,237.1320953369140600,131.9320068359375000,19.1551799774169920,30.8999996185302730,50,96,54,81,53,753,2147497453,2147803209,2147688320,2147789321,2147305124,2147508699,2147777636,2148241188,2903,7,12,51005
1350404312,5802,211.6600036621093800,19.2595996856689450,36.5923995971679700,241.8598937988281200,128.5413970947265600,19.2586994171142580,30.6353492736816400,50,97,55,80,54,753,2147501184,2147821632,2147738944,2147789915,2147309997,2147522797,2147806756,2148241682,2573,8,12,55165
1350404477,5805,198.0200042724609400,19.3236999511718750,36.5859985351562500,245.0596008300781200,126.6184005737304700,19.3174304962158200,30.4641704559326170,50,98,56,82,53,754,2147503158,2147857398,2147828626,2147792941,2147313718,2147540736,2147859382,2148243638,1777,7,12,8503
1350404554,5805,190.6799926757812500,19.3302001953125000,36.5793991088867200,246.2868957519531200,126.2230987548828100,19.3295001983642580,30.4036808013916000,51,96,56,81,53,756,2147508973,2147882989,2147895378,2147786770,2147315410,2147557275,2147896658,2148248612,1318,7,12,34587
1350404609,5802,185.1300048828125000,19.3512992858886720,36.5810012817382800,246.4414062500000000,125.0631027221679700,19.3649291992187500,30.3815803527832030,50,99,55,81,53,755,2147516388,2147906121,2147957385,2147789174,2147321307,2147575222,2147932562,2148247990,1284,7,12,44278
1350404664,5802,179.5299987792968800,19.4043006896972660,36.5871009826660160,246.6015930175781200,123.8588027954101600,19.4017200469970700,30.3586597442626950,52,98,55,81,53,754,2147524160,2147936859,2148026587,2147791652,2147319268,2147588050,2147966976,2148248822,1287,7,12,43269
1350404719,5802,173.8200073242187500,19.4631004333496100,36.5900001525878900,246.3264007568359400,121.5755996704101600,19.4714794158935550,30.3414001464843750,53,100,55,81,53,755,2147524891,2147962605,2148088192,2147789833,2147323392,2147603556,2147994651,2148255817,1130,7,12,22586
1350404793,5804,166.4700012207031200,19.5175991058349600,36.5924987792968750,246.4116058349609400,119.2732009887695300,19.5418300628662100,30.3076190948486330,54,102,56,82,53,755,2147534061,2147972708,2148089929,2147786029,2147327744,2147603867,2147992100,2148254006,806,7,12,4254
1350404848,5804,161.3300018310547000,19.5904006958007800,36.5999984741210940,246.5993041992187500,117.5955963134765600,19.5931091308593750,30.2774906158447270,54,103,56,82,53,759,2147518180,2147851693,2147744283,2147786267,2147312027,2147532800,2147801700,2148243090,587,7,12,7906
1350404903,5805,156.2100067138672000,19.6769008636474600,36.6102981567382800,246.4210968017578000,114.6181030273437500,19.6841297149658200,30.2467803955078120,57,102,55,82,53,758,2147577636,2148138688,2148452608,2147790747,2147345316,2147683026,2148157686,2148262573,462,7,12,43317
1350404958,5804,151.1100006103515600,19.7859992980957030,36.6241989135742200,245.1562042236328000,111.1977996826171900,19.7887191772460940,30.2591495513916000,58,106,54,82,53,758,2147611702,2148255323,2148710098,2147790912,2147363300,2147752374,2148282688,2148272155,395,7,12,53052
1350405013,5804,146.2100067138672000,19.8444995880126950,36.6242980957031250,245.3332977294922000,109.3141021728515600,19.8463401794433600,30.2268104553222660,61,103,56,82,53,761,2147647725,2148376402,2148954404,2147794203,2147368685,2147806820,2148392758,2148284160,512,7,12,35379
1350405068,5802,141.4499969482422000,20.0562000274658200,36.6516990661621100,245.8285980224609400,102.8936996459961000,20.0428104400634770,30.1215801239013670,64,105,55,83,53,762,2147700132,2148514752,2149204909,2147795712,2147393627,2147860809,2148487204,2148288310,805,8,12,35955
1350405146,5806,135.3300018310547000,20.1706008911132800,36.6591987609863300,246.8161926269531200,99.1313934326171900,20.1580009460449220,30.0289497375488280,65,106,56,82,53,763,2147794550,2148768566,2149698267,2147798976,2147426733,2147971008,2148689554,2148303113,849,7,12,16843
1350405201,5802,131.5599975585937500,20.1742000579834000,36.6468009948730500,247.7958984375000000,98.5668792724609400,20.1752796173095700,29.9780807495117200,65,110,55,81,52,763,2147822976,2148758162,2149518180,2147800402,2147441270,2147951872,2148586816,2148299245,846,8,12,6064
1350405256,5802,127.8099975585937500,20.2807998657226560,36.6446990966796900,248.2870941162109400,95.2354507446289000,20.2773303985595700,29.9136695861816400,67,110,57,83,52,762,2148008768,2149269668,2150594523,2147809389,2147505289,2148182802,2149062491,2148332745,662,7,12,18948
1350405311,5802,124.2699966430664000,20.3882007598876950,36.6539001464843750,249.1654052734375000,91.7418365478515600,20.3843803405761720,29.8301906585693360,69,109,54,82,53,765,2148136941,2149569673,2151102582,2147816521,2147552347,2148305910,2149260187,2148348534,297,7,13,4805
1350405377,5806,120.0100021362304700,20.5013999938964840,36.6601982116699200,250.1331939697265600,86.8990097045898400,20.5328407287597660,29.7257900238037100,72,111,56,83,53,765,2148374710,2150065984,2151930404,2147825161,2147636434,2148509632,2149585426,2148376338,249,7,12,32917
1350405454,5803,115.4800033569336000,20.7278003692626950,36.6670989990234400,249.6885986328125000,81.0645370483398400,20.7118206024169920,29.6709194183349600,76,111,55,83,54,766,2148575798,2150357467,2152195840,2147834578,2147688923,2148541997,2149544557,2148377782,193,7,12,56225
1350405531,5807,111.6900024414062500,20.7518997192382800,36.6682014465332000,250.6636047363281200,79.7280883789062500,20.7528400421142580,29.6111793518066400,78,112,55,83,53,766,2148596416,2150214272,2151690294,2147828992,2147700982,2148506578,2149425673,2148369901,103,8,12,49167
1350405608,5805,107.7300033569336000,20.9438991546630860,36.6800003051757800,250.6208038330078000,74.0790023803711000,20.9262790679931640,29.5412902832031250,78,113,56,84,52,769,2148300288,2149314770,2149846299,2147810020,2147585481,2148103213,2148621668,2148312969,875,7,12,55491
1350405696,5801,103.3099975585937500,20.9766998291015620,36.6805000305175800,251.5283050537109400,72.6420364379882800,20.9704208374023440,29.4838409423828120,77,112,55,83,53,772,2149268562,2151196187,2152788763,2147852370,2147907602,2148828562,2149800813,2148409179,1233,7,12,18428
1350405775,5802,99.2099990844726600,21.1618995666503900,36.6869010925293000,252.4987945556640600,66.9975662231445300,21.1438808441162100,29.3705291748046880,78,112,56,83,54,778,2149150701,2150663908,2151609490,2147840758,2147869156,2148602797,2149304576,2148374363,905,7,12,60712
1350405830,5802,96.7200012207031200,21.2367992401123050,36.6912994384765600,253.4759979248047000,65.2771835327148400,21.1967697143554700,29.3068695068359380,79,114,56,83,54,777,2149747373,2151625033,2152896374,2147868013,2148063369,2148978770,2149830820,2148426880,587,8,12,5334
1350405885,5805,94.6100006103515600,21.3362007141113280,36.6904983520507800,254.0493011474609400,62.6023216247558600,21.2790393829345700,29.2486591339111330,77,114,56,83,53,780,2149848420,2151700754,2152901741,2147875904,2148082779,2148970660,2149778550,2148421805,694,8,12,8435
1350405940,5805,92.8499984741211000,21.4545993804931640,36.6836013793945300,255.5541992187500000,57.7747306823730500,21.4275894165039060,29.1239700317382800,78,113,55,84,52,781,2150586413,2152924525,2154584850,2147913097,2148326098,2149413650,2150420269,2148484242,953,7,12,33963
1350406006,5802,91.4700012207031200,21.4981002807617200,36.6836013793945300,258.4440002441406000,56.1765785217285160,21.4767894744873050,28.9828090667724600,77,114,57,83,52,783,2150273161,2152265545,2153528045,2147898770,2148228406,2149177142,2150024329,2148450779,907,7,12,18769
1350406103,5804,89.2500000000000000,21.7507991790771500,36.6814994812011700,260.1565856933594000,49.8261718750000000,21.6723899841308600,28.8323707580566400,71,113,55,84,52,783,2150469933,2152430555,2153553316,2147895012,2148310189,2149253110,2150063259,2148458203,616,7,13,13620
1350406180,5804,87.2399978637695300,21.9568004608154300,36.6781005859375000,259.4978942871094000,41.4925804138183600,21.9293708801269530,28.7556190490722660,72,111,56,85,53,784,2150844617,2152865517,2153927872,2147908873,2148451145,2149435492,2150239899,2148478601,780,7,12,7948
1350406268,5801,85.4300003051757800,22.1200008392334000,36.6702995300293000,260.1691894531250000,36.1540794372558600,22.0941600799560550,28.6616096496582030,71,114,55,84,52,785,2152076050,2154698166,2156197769,2147961673,2148895040,2150169508,2151179072,2148569097,742,7,12,60508
1350406401,5806,83.0400009155273400,22.3320999145507800,36.6561012268066400,262.4184875488281000,28.8813591003417970,22.3188800811767580,28.4796104431152340,70,116,56,84,51,792,2160406080,2167812059,2173403995,2148404434,2151922468,2155372937,2158181147,2149268736,382,7,13,54736
1350406467,5806,81.1200027465820300,22.5944004058837900,36.6407012939453100,264.3710937500000000,21.2612895965576170,22.5546207427978500,28.3067607879638670,69,116,56,86,51,792,2161246052,2168499126,2173710473,2148467986,2152277238,2155664640,2158183268,2149293494,264,7,12,28639
1350406577,5803,79.9499969482421900,22.6263999938964840,36.6435012817382800,266.8947143554687500,19.6124897003173830,22.6056709289550780,28.1854591369628900,67,117,56,85,51,792,2156702628,2160934345,2163274962,2148176795,2150781641,2152920018,2154349330,2148895835,347,8,12,33063
1350406766,5802,77.1900024414062500,22.9319000244140620,36.6310005187988300,267.5600891113281000,9.4256401062011720,22.9213905334472660,28.0344505310058600,65,121,55,85,50,790,2161897938,2168088722,2171526592,2148416320,2153269952,2156617234,2158619328,2149307492,455,6,12,57181
1350406832,5800,74.8000030517578100,23.0109004974365230,36.6338996887207000,268.1742858886719000,7.7197017669677730,22.9743194580078120,27.9892101287841800,64,119,56,87,50,783,2170952420,2180525741,2186238445,2148984173,2156860891,2161828205,2164661833,2149940379,3164,7,12,12113
1350406887,5803,72.5899963378906200,23.2588005065917970,36.6269989013671900,268.9256896972656000,-0.8785396814346313,23.2413406372070300,27.8549995422363280,64,114,56,85,51,782,2170632310,2179080822,2183626322,2148948370,2157274368,2162134125,2164802925,2149948470,2739,7,12,23610
1350406942,5804,71.0899963378906200,23.2898006439209000,36.6246986389160160,268.2923889160156000,-2.0480899810791016,23.2776908874511720,27.8655796051025400,67,115,56,86,51,783,2177793709,2188570395,2194533522,2149483291,2160087990,2165888164,2168971172,2150438939,2196,7,12,51909
1350407032,5804,69.1600036621093800,23.5083007812500000,36.6236000061035160,263.3677062988281000,-8.8901367187500000,23.4905204772949220,27.9775505065917970,66,117,56,85,51,784,2172002395,2178879698,2181300882,2149025846,2157982454,2162037586,2163595053,2149888173,2122,7,12,17610
1350407098,5805,67.3499984741211000,23.7278003692626950,36.6223983764648440,258.5772094726562500,-15.9194402694702150,23.7094707489013670,28.0855693817138670,68,117,56,85,53,779,2184798848,2195982793,2201030930,2149855579,2163995053,2170678089,2173533074,2150920100,1236,7,12,39084
1350407186,5804,65.3799972534179700,23.9521999359130860,36.6018981933593750,260.4674987792969000,-23.3075103759765620,23.9399299621582030,27.9185199737548830,67,125,56,85,52,781,2185611364,2195942866,2199753718,2149971072,2164679625,2170876434,2172824384,2150893083,567,7,11,34597
1350407363,5801,63.2400016784668000,24.1688003540039060,36.5815010070800800,258.0841979980469000,-30.0125598907470700,24.1493797302246100,27.9336490631103500,62,116,56,85,51,782,2169940169,2173408603,2172820077,2148964068,2157724041,2160182601,2160119049,2149593197,3511,7,12,11416
1350407451,5805,61.4599990844726560,24.3684005737304700,36.5671005249023440,260.3049926757812500,-35.8545112609863300,24.3321094512939450,27.7723598480224600,61,117,55,86,52,782,2178433270,2183363200,2183006875,2149520301,2162137197,2165716754,2165746285,2150204790,2761,8,12,44865
1350407673,5805,59.4900016784668000,24.9585990905761720,36.4999008178710940,259.9722900390625000,-54.3169212341308600,24.9111099243164060,27.5621795654296880,62,121,57,86,50,780,2207232585,2217879661,2219198253,2151611510,2176928978,2183928694,2183921161,2152230043,2808,8,12,16985
1350407994,5801,57.8300018310546900,25.9958000183105470,36.3689002990722660,247.3961944580078000,-86.6606063842773400,25.9314193725585940,27.6886100769042970,62,122,55,86,50,780,2207772589,2217881682,2218654893,2151815835,2178821385,2185659328,2185128329,2152374299,1342,8,12,51172
1350408259,5804,55.4900016784668000,26.2914009094238280,36.3352012634277340,242.5751037597656200,-97.0805511474609400,26.2618598937988280,27.7678794860839840,62,121,57,88,52,777,2208182070,2217867739,2218774043,2152032320,2180654098,2187310656,2186271012,2152579117,897,6,12,40627
1350408629,5802,53.9599990844726560,26.3292999267578120,36.3305015563964840,240.1011962890625000,-99.3537597656250000,26.3340606689453120,27.8475303649902340,60,116,55,84,51,769,2209253860,2219055268,2219838464,2152260242,2182158336,2188593673,2186942464,2152668480,577,7,11,6122
1350408902,5804,51.7099990844726560,26.3400001525878900,36.3303985595703100,239.8518066406250000,-99.7646636962890600,26.3471202850341800,27.8534507751464840,58,114,54,84,50,765,2214850468,2225255460,2226462427,2153163053,2187536658,2193926848,2191254464,2153279332,368,7,11,23910
1350408959,5803,49.8800010681152340,26.3376007080078120,36.3288002014160160,240.0187988281250000,-99.7415466308593800,26.3463802337646500,27.8464107513427730,56,110,56,85,50,763,2219991478,2230534445,2232197366,2154350198,2193857664,2199736786,2195666020,2153956864,174,8,12,29913
1350409016,5806,47.6500015258789060,26.3362007141113280,36.3273010253906250,240.0867004394531200,-99.6835174560546900,26.3445396423339840,27.8441200256347660,56,113,56,85,50,763,2223419702,2234077184,2235802998,2155007680,2200450596,2206209307,2200456758,2154482715,39,7,12,25257
1350409061,5804,45.7200012207031250,26.3243007659912100,36.3213005065918000,240.0157012939453000,-99.3751983642578100,26.3347396850585940,27.8509998321533200,55,112,55,85,50,758,2229029174,2240226998,2242678189,2156545462,2207170523,2212539501,2204985316,2155144777,176,8,11,43169
1350409106,5805,43.8300018310546900,26.3195991516113280,36.3180007934570300,239.8506011962890600,-99.3402862548828100,26.3336391448974600,27.8586101531982420,55,112,55,85,48,758,2236282029,2247813723,2250987154,2158702198,2215138486,2220461787,2211423122,2156230144,253,9,12,32776
1350409186,5803,40.5699996948242200,26.3118991851806640,36.3149986267089840,240.1687927246093800,-98.8683166503906200,26.3186397552490230,27.8505096435546880,55,113,55,85,51,753,2243241472,2254838838,2258783396,2161441097,2229088996,2233472603,2221046098,2157750390,211,9,12,46338
1350409231,5805,38.2099990844726560,26.3017997741699220,36.3102989196777340,240.2075958251953000,-98.3753967285156200,26.3029804229736330,27.8547897338867200,53,112,56,83,50,754,2251541888,2264287259,2269441188,2163669632,2237989174,2241982683,2227104246,2158461266,22,8,11,39870
1350409264,5802,36.3800010681152340,26.2805004119873050,36.3005981445312500,240.4365997314453000,-97.9642868041992200,26.2899208068847660,27.8498497009277340,54,114,56,84,49,755,2256975780,2268960036,2274005312,2166019739,2247446436,2250670921,2233657042,2159784347,3589,7,11,33170
1350409297,5804,34.4599990844726560,26.2733993530273440,36.2975997924804700,240.4768981933593800,-97.8062591552734400,26.2849006652832030,27.8499698638916000,53,112,54,86,51,752,2258313179,2268989997,2273902491,2168436370,2254191168,2256589686,2237675739,2160665252,3592,6,11,49490
1350409330,5803,32.4500007629394500,26.2721004486084000,36.2967987060546900,240.4602966308593800,-97.7353363037109400,26.2826499938964840,27.8515796661376950,54,112,56,86,49,752,2273253787,2286224539,2294396626,2174844480,2263397787,2265185435,2244796297,2162309458,3549,7,11,13709
1350409363,5802,30.4899997711181640,26.2723999023437500,36.2970008850097660,240.6168975830078000,-97.7336807250976600,26.2826004028320300,27.8446998596191400,54,112,54,86,51,748,2274413046,2285568310,2292566921,2176377197,2275322285,2276637156,2253869741,2164129956,3567,8,11,14092
1350409396,5804,28.4500007629394530,26.2661991119384770,36.2933998107910160,240.6327972412109400,-97.2303237915039000,26.2666091918945300,27.8502407073974600,53,112,55,86,50,748,2283254756,2294609718,2303051812,2182277641,2285883986,2285906358,2260777142,2166283026,76,9,11,57291
1350409429,5802,26.4400005340576170,26.2292003631591800,36.2731018066406250,240.5933990478515600,-96.6404266357421900,26.2478809356689450,27.8591194152832030,54,113,55,85,50,748,2292813321,2305389248,2315656758,2188206710,2298980324,2298193563,2270531812,2168721133,181,9,11,43049
